Williams, AZ

9:50 AM MST on August 31, 2016 (GMT -0700)
Williams

Weather History for KCMR - January, 2012

Change the Weather History Date:

Monday, January 23, 2012

  Actual Average (KFLG) Record (KFLG)
Temperature  
Mean Temperature 32 °F 30 °F  
Max Temperature 42 °F 43 °F 61 °F (1970)
Min Temperature 23 °F 18 °F -15 °F (1937)
Degree Days  
Heating Degree Days 32 35  
Month to date heating degree days 811  
Since 1 July heating degree days 3639  
Cooling Degree Days 0 0  
Month to date cooling degree days 0  
Year to date cooling degree days 0  
Moisture  
Dew Point 15 °F    
Average Humidity 52    
Maximum Humidity 93    
Minimum Humidity 17    
Precipitation  
Precipitation 0.00 in 0.06 in 1.73 in (1943)
Month to date precipitation 1.55  
Year to date precipitation 1.55  
Snow  
Snow 0.00 in 0.70 in 17.30 in (1943)
Month to date snowfall 16.8  
Since 1 July snowfall 45.9  
Snow Depth -    
Sea Level Pressure  
Sea Level Pressure 30.07 in    
Wind  
Wind Speed 9 mph (South)    
Max Wind Speed 20 mph    
Max Gust Speed 30 mph    
Visibility 9 miles    
Events      
T = Trace of Precipitation, MM = Missing Value Source: NWS Daily Summary

Daily Weather History Graph

Daily Weather History Graph

Search for Another Location

Airport or City:

Trip Planner

Search our weather history database for the weather conditions in past years. The results will help you decide how hot, cold, wet, or windy it might be!

Date:

Astronomy

Jan. 23, 2012 Rise Set
Actual Time 7:34 AM MST 5:47 PM MST
Civil Twilight 7:06 AM MST 6:14 PM MST
Nautical Twilight 6:36 AM MST 6:45 PM MST
Astronomical Twilight 6:05 AM MST 7:15 PM MST
Moon 7:34 AM MST (1/23) 6:35 PM MST (1/23)
Length of Visible Light 11h 07m
Length of Day
10h 13m
New Moon, 0% of the Moon is Illuminated
Jan 23
New Moon
Jan 30
First Quarter
Feb 7
Full
Feb 14
Last Quarter
Feb 21
New

Hourly Weather History & Observations

Time (MST) Temp. Windchill Dew Point Humidity Pressure Visibility Wind Dir Wind Speed Gust Speed Precip Events Conditions
12:15 AM 23.0 °F 15.8 °F 12.2 °F 63% 30.19 in 10.0 mi South 5.8 mph - N/A   Clear
12:35 AM 23.0 °F 14.7 °F 12.2 °F 63% 30.19 in 10.0 mi SSE 6.9 mph - N/A   Clear
12:55 AM 24.8 °F 16.9 °F 10.4 °F 54% 30.18 in 10.0 mi South 6.9 mph - N/A   Clear
1:15 AM 28.4 °F 20.4 °F 8.6 °F 43% 30.17 in 10.0 mi SSE 8.1 mph - N/A   Clear
1:35 AM 30.2 °F 22.6 °F 6.8 °F 37% 30.18 in 10.0 mi South 8.1 mph - N/A   Clear
1:55 AM 24.8 °F 16.9 °F 8.6 °F 50% 30.18 in 10.0 mi SSE 6.9 mph - N/A   Partly Cloudy
2:15 AM 24.8 °F 16.9 °F 8.6 °F 50% 30.17 in 10.0 mi SSE 6.9 mph - N/A   Scattered Clouds
2:35 AM 26.6 °F 20.0 °F 8.6 °F 47% 30.16 in 10.0 mi SE 5.8 mph - N/A   Partly Cloudy
2:55 AM 24.8 °F 16.9 °F 8.6 °F 50% 30.16 in 10.0 mi SSE 6.9 mph - N/A   Clear
3:15 AM 24.8 °F - 8.6 °F 50% 30.15 in 10.0 mi Calm Calm - N/A   Clear
3:35 AM 24.8 °F 20.5 °F 8.6 °F 50% 30.14 in 10.0 mi SSE 3.5 mph - N/A   Clear
3:55 AM 26.6 °F 20.0 °F 6.8 °F 43% 30.13 in 10.0 mi SE 5.8 mph - N/A   Clear
4:15 AM 32.0 °F - 3.2 °F 30% 30.13 in 10.0 mi Calm Calm - N/A   Clear
4:35 AM 28.4 °F 24.6 °F 6.8 °F 40% 30.12 in 10.0 mi SE 3.5 mph - N/A   Unknown
4:55 AM 32.0 °F 25.6 °F 3.2 °F 30% 30.12 in 10.0 mi South 6.9 mph - N/A   Clear
5:15 AM 35.6 °F 29.2 °F -0.4 °F 22% 30.12 in 10.0 mi South 8.1 mph - N/A   Partly Cloudy
5:35 AM 32.0 °F 25.6 °F 6.8 °F 35% 30.12 in 10.0 mi SSE 6.9 mph - N/A   Mostly Cloudy
6:15 AM 35.6 °F 27.5 °F -0.4 °F 22% 30.11 in 10.0 mi South 11.5 mph 19.6 mph N/A   Overcast
6:35 AM 35.6 °F 28.6 °F -2.2 °F 20% 30.11 in 10.0 mi SSW 9.2 mph - N/A   Overcast
6:55 AM 37.4 °F 30.3 °F -2.2 °F 19% 30.10 in 10.0 mi South 10.4 mph 17.3 mph N/A   Overcast
7:15 AM 37.4 °F 28.9 °F -4.0 °F 17% 30.10 in 10.0 mi SSW 13.8 mph 20.7 mph N/A   Scattered Clouds
7:35 AM 37.4 °F 29.8 °F -2.2 °F 19% 30.09 in 10.0 mi SSW 11.5 mph 19.6 mph N/A   Mostly Cloudy
7:55 AM 37.4 °F 29.3 °F 1.4 °F 22% 30.10 in 10.0 mi SSW 12.7 mph 18.4 mph N/A   Overcast
8:15 AM 37.4 °F 28.2 °F -0.4 °F 20% 30.10 in 10.0 mi SSW 16.1 mph 21.9 mph N/A   Overcast
8:55 AM 37.4 °F 28.5 °F 5.0 °F 26% 30.09 in 10.0 mi SSW 15.0 mph - N/A   Overcast
9:15 AM 39.2 °F 31.6 °F 15.8 °F 39% 30.10 in 10.0 mi SSW 12.7 mph 21.9 mph N/A   Overcast
9:35 AM 39.2 °F 31.2 °F 19.4 °F 45% 30.11 in 10.0 mi SSW 13.8 mph 20.7 mph N/A   Overcast
9:55 AM 39.2 °F 32.0 °F 23.0 °F 52% 30.10 in 10.0 mi South 11.5 mph 18.4 mph N/A   Mostly Cloudy
10:15 AM 37.4 °F 30.3 °F 12.2 °F 36% 30.10 in 10.0 mi SSE 10.4 mph - N/A   Overcast
10:35 AM 37.4 °F 30.8 °F 14.0 °F 38% 30.09 in 10.0 mi SE 9.2 mph - N/A   Mostly Cloudy
10:55 AM 37.4 °F 30.8 °F 14.0 °F 38% 30.10 in 7.0 mi SE 9.2 mph 18.4 mph N/A   Overcast
11:15 AM 37.4 °F 30.3 °F 21.2 °F 52% 30.08 in 9.0 mi SSW 10.4 mph - N/A   Mostly Cloudy
11:35 AM 42.8 °F 35.4 °F 19.4 °F 39% 30.06 in 10.0 mi South 15.0 mph 21.9 mph N/A   Mostly Cloudy
11:55 AM 41.0 °F 31.9 °F 23.0 °F 49% 30.05 in 10.0 mi South 19.6 mph 28.8 mph N/A   Mostly Cloudy
12:35 PM 39.2 °F 31.2 °F 24.8 °F 56% 30.02 in 10.0 mi South 13.8 mph 29.9 mph N/A   Mostly Cloudy
1:15 PM 37.4 °F 30.3 °F 23.0 °F 56% 30.01 in 10.0 mi South 10.4 mph 21.9 mph N/A   Overcast
1:35 PM 37.4 °F 29.3 °F 21.2 °F 52% 30.01 in 10.0 mi SSW 12.7 mph 17.3 mph N/A   Overcast
1:55 PM 35.6 °F 25.9 °F 24.8 °F 65% 30.02 in 1.5 mi SW 16.1 mph 25.3 mph N/A   Overcast
2:15 PM 32.0 °F 24.2 °F 26.6 °F 80% 30.02 in 0.5 mi SW 9.2 mph 16.1 mph N/A   Overcast
2:35 PM 32.0 °F 23.6 °F 28.4 °F 87% 30.01 in 0.2 mi South 10.4 mph 21.9 mph N/A   Overcast
2:55 PM 32.0 °F 24.8 °F 26.6 °F 80% 30.01 in 1.0 mi South 8.1 mph - N/A   Overcast
3:15 PM 32.0 °F 24.8 °F 28.4 °F 87% 30.00 in 0.5 mi SE 8.1 mph - N/A   Overcast
3:35 PM 30.2 °F 19.3 °F 28.4 °F 93% 29.99 in 0.2 mi South 15.0 mph 21.9 mph N/A   Overcast
3:55 PM 30.2 °F 22.6 °F 26.6 °F 86% 29.98 in 0.8 mi SSE 8.1 mph - N/A   Overcast
4:15 PM 30.2 °F 24.3 °F 26.6 °F 86% 29.97 in 2.5 mi ESE 5.8 mph - N/A   Mostly Cloudy
4:35 PM 32.0 °F 25.6 °F 26.6 °F 80% 29.96 in 9.0 mi SSE 6.9 mph - N/A   Mostly Cloudy
4:55 PM 32.0 °F 23.0 °F 24.8 °F 75% 29.95 in 10.0 mi SSE 11.5 mph - N/A   Scattered Clouds
5:15 PM 32.0 °F 21.6 °F 24.8 °F 75% 29.95 in 10.0 mi SSE 15.0 mph 20.7 mph N/A   Partly Cloudy
5:35 PM 32.0 °F 22.5 °F 24.8 °F 75% 29.95 in 10.0 mi SSE 12.7 mph 21.9 mph N/A   Mostly Cloudy
5:55 PM 32.0 °F 22.1 °F 23.0 °F 69% 29.95 in 10.0 mi SSE 13.8 mph - N/A   Scattered Clouds
6:15 PM 32.0 °F 22.5 °F 23.0 °F 69% 29.95 in 10.0 mi SSE 12.7 mph - N/A   Partly Cloudy
6:35 PM 32.0 °F 23.6 °F 21.2 °F 64% 29.95 in 10.0 mi SSE 10.4 mph 23.0 mph N/A   Scattered Clouds
6:55 PM 32.0 °F 23.0 °F 23.0 °F 69% 29.95 in 10.0 mi SSE 11.5 mph - N/A   Mostly Cloudy
7:15 PM 30.2 °F 20.2 °F 23.0 °F 75% 29.96 in 10.0 mi SSE 12.7 mph - N/A   Overcast
7:35 PM 32.0 °F 22.5 °F 23.0 °F 69% 29.96 in 10.0 mi SE 12.7 mph - N/A   Overcast
7:55 PM 32.0 °F 26.4 °F 23.0 °F 69% 29.97 in 10.0 mi SSE 5.8 mph - N/A   Overcast
8:15 PM 32.0 °F 25.6 °F 23.0 °F 69% 29.97 in 10.0 mi South 6.9 mph - N/A   Overcast
8:35 PM 32.0 °F 25.6 °F 23.0 °F 69% 29.98 in 7.0 mi WSW 6.9 mph 16.1 mph N/A   Overcast
8:55 PM 28.4 °F 23.3 °F 26.6 °F 93% 29.98 in 1.2 mi SW 4.6 mph - N/A   Overcast
9:15 PM 28.4 °F 22.2 °F 26.6 °F 93% 29.97 in 5.0 mi South 5.8 mph - N/A   Overcast
9:35 PM 28.4 °F 20.4 °F 24.8 °F 86% 29.97 in 10.0 mi South 8.1 mph - N/A   Mostly Cloudy
9:55 PM 28.4 °F 21.2 °F 24.8 °F 86% 29.97 in 10.0 mi South 6.9 mph - N/A   Overcast
10:15 PM 28.4 °F - 24.8 °F 86% 29.97 in 10.0 mi Calm Calm - N/A   Overcast
10:35 PM 28.4 °F 23.3 °F 24.8 °F 86% 29.98 in 7.0 mi South 4.6 mph - N/A   Overcast
10:55 PM 28.4 °F 24.6 °F 26.6 °F 93% 29.97 in 5.0 mi ESE 3.5 mph - N/A   Overcast
11:15 PM 28.4 °F - 24.8 °F 86% 29.97 in 10.0 mi Calm Calm - N/A   Mostly Cloudy
11:35 PM 26.6 °F - 24.8 °F 93% 29.97 in 10.0 mi Calm Calm - N/A   Mostly Cloudy
11:55 PM 28.4 °F - 24.8 °F 86% 29.98 in 10.0 mi Calm Calm - N/A   Overcast